Time,TemperatureF,DewpointF,PressureIn,WindDirection,WindDirectionDegrees,WindSpeedMPH,WindSpeedGustMPH,Humidity,HourlyPrecipIn,Conditions,Clouds,dailyrainin,SolarRadiationWatts/m^2,SoftwareType,DateUTC
2013-01-13 00:03:00,42.1,33.0,30.18,WSW,256,0.0,0.0,70,0.00,OVC,,0.00,0.0,WeatherDisplay:10.37,2013-01-13 08:03:00,
2013-01-13 00:08:00,42.0,33.6,30.18,WSW,256,0.0,0.0,72,0.00,OVC,,0.00,0.0,WeatherDisplay:10.37,2013-01-13 08:08:00,
2013-01-13 00:13:00,41.8,33.4,30.18,WSW,256,0.0,0.0,72,0.00,OVC,,0.00,0.0,WeatherDisplay:10.37,2013-01-13 08:13:00,
2013-01-13 00:18:00,41.6,32.5,30.18,WSW,256,0.0,0.0,70,0.00,OVC,,0.00,0.0,WeatherDisplay:10.37,2013-01-13 08:18:00,
2013-01-13 00:23:00,41.5,32.1,30.18,WSW,256,0.0,1.1,69,0.00,OVC,,0.00,0.0,WeatherDisplay:10.37,2013-01-13 08:23:00,
2013-01-13 00:28:00,41.6,31.1,30.18,WSW,256,0.0,1.1,66,0.00,OVC,,0.00,0.0,WeatherDisplay:10.37,2013-01-13 08:28:00,
2013-01-13 00:33:00,41.8,30.9,30.18,WSW,256,0.2,2.3,65,0.00,OVC,,0.00,0.0,WeatherDisplay:10.37,2013-01-13 08:33:00,
2013-01-13 00:38:00,42.1,30.4,30.18,WSW,257,0.0,0.0,63,0.00,OVC,,0.00,0.0,WeatherDisplay:10.37,2013-01-13 08:38:00,
2013-01-13 00:43:00,42.5,29.6,30.17,WSW,257,0.0,0.0,60,0.00,OVC,,0.00,0.0,WeatherDisplay:10.37,2013-01-13 08:43:00,
2013-01-13 00:48:00,42.6,28.8,30.17,NNW,346,0.0,0.0,58,0.00,OVC,,0.00,0.0,WeatherDisplay:10.37,2013-01-13 08:48:00,
2013-01-13 00:53:00,42.6,28.0,30.17,ENE,57,0.0,0.0,56,0.00,OVC,,0.00,0.0,WeatherDisplay:10.37,2013-01-13 08:53:00,
2013-01-13 00:58:00,42.6,27.5,30.17,NE,56,0.0,2.3,55,0.00,OVC,,0.00,0.0,WeatherDisplay:10.37,2013-01-13 08:58:00,
2013-01-13 01:03:00,42.5,27.5,30.18,ENE,57,0.0,0.0,55,0.00,OVC,,0.00,0.0,WeatherDisplay:10.37,2013-01-13 09:03:00,
2013-01-13 01:09:00,42.5,27.5,30.18,ENE,58,0.0,0.0,55,0.00,OVC,,0.00,0.0,WeatherDisplay:10.37,2013-01-13 09:09:00,
2013-01-13 01:14:00,42.4,27.4,30.18,ENE,58,0.0,0.0,55,0.00,OVC,,0.00,0.0,WeatherDisplay:10.37,2013-01-13 09:14:00,
2013-01-13 01:19:00,42.3,27.7,30.18,ENE,58,0.0,0.0,56,0.00,OVC,,0.00,0.0,WeatherDisplay:10.37,2013-01-13 09:19:00,
2013-01-13 01:24:00,42.1,29.6,30.18,ENE,58,0.0,0.0,61,0.00,OVC,,0.00,0.0,WeatherDisplay:10.37,2013-01-13 09:24:00,
2013-01-13 01:29:00,41.8,29.3,30.18,ENE,58,0.0,0.0,61,0.00,OVC,,0.00,0.0,WeatherDisplay:10.37,2013-01-13 09:29:00,
2013-01-13 01:34:00,41.6,29.5,30.18,ENE,58,0.0,0.0,62,0.00,OVC,,0.00,0.0,WeatherDisplay:10.37,2013-01-13 09:34:00,
2013-01-13 01:39:00,41.5,29.4,30.18,ENE,58,0.0,0.0,62,0.00,OVC,,0.00,0.0,WeatherDisplay:10.37,2013-01-13 09:39:00,
2013-01-13 01:44:00,41.5,29.0,30.18,ENE,58,0.0,0.0,61,0.00,OVC,,0.00,0.0,WeatherDisplay:10.37,2013-01-13 09:44:00,
2013-01-13 01:49:00,41.9,27.8,30.18,ESE,113,2.4,4.6,57,0.00,OVC,,0.00,0.0,WeatherDisplay:10.37,2013-01-13 09:49:00,
2013-01-13 01:54:00,42.1,28.4,30.18,ESE,113,0.2,2.3,58,0.00,OVC,,0.00,0.0,WeatherDisplay:10.37,2013-01-13 09:54:00,
2013-01-13 01:59:00,42.0,29.9,30.19,ESE,114,0.0,0.0,62,0.00,OVC,,0.00,0.0,WeatherDisplay:10.37,2013-01-13 09:59:00,
2013-01-13 02:04:00,41.7,28.8,30.19,ESE,114,0.5,3.5,60,0.00,OVC,,0.00,0.0,WeatherDisplay:10.37,2013-01-13 10:04:00,
2013-01-13 02:09:00,41.6,28.3,30.20,ESE,114,0.3,2.3,59,0.00,OVC,,0.00,0.0,WeatherDisplay:10.37,2013-01-13 10:09:00,
2013-01-13 02:14:00,41.7,28.8,30.20,ESE,113,0.0,0.0,60,0.00,OVC,,0.00,0.0,WeatherDisplay:10.37,2013-01-13 10:14:00,
2013-01-13 02:19:00,41.6,28.3,30.20,ESE,114,0.1,0.0,59,0.00,OVC,,0.00,0.0,WeatherDisplay:10.37,2013-01-13 10:19:00,
2013-01-13 02:24:00,41.5,28.2,30.20,ESE,114,0.0,0.0,59,0.00,OVC,,0.00,0.0,WeatherDisplay:10.37,2013-01-13 10:24:00,
2013-01-13 02:29:00,41.4,29.3,30.20,ESE,113,0.0,0.0,62,0.00,OVC,,0.00,0.0,WeatherDisplay:10.37,2013-01-13 10:29:00,
2013-01-13 02:34:00,41.0,29.7,30.20,ESE,113,0.0,0.0,64,0.00,OVC,,0.00,0.0,WeatherDisplay:10.37,2013-01-13 10:34:00,
2013-01-13 02:39:00,40.6,30.1,30.20,ESE,114,0.0,0.0,66,0.00,OVC,,0.00,0.0,WeatherDisplay:10.37,2013-01-13 10:39:00,
2013-01-13 02:44:00,40.2,30.1,30.20,ESE,114,0.0,0.0,67,0.00,OVC,,0.00,0.0,WeatherDisplay:10.37,2013-01-13 10:44:00,
2013-01-13 02:49:00,39.9,28.7,30.20,ESE,114,0.5,2.3,64,0.00,OVC,,0.00,0.0,WeatherDisplay:10.37,2013-01-13 10:49:00,
2013-01-13 02:54:00,39.9,28.7,30.19,ESE,113,0.0,0.0,64,0.00,OVC,,0.00,0.0,WeatherDisplay:10.37,2013-01-13 10:54:00,
2013-01-13 02:59:00,39.8,29.4,30.19,ESE,113,0.1,1.1,66,0.00,OVC,,0.00,0.0,WeatherDisplay:10.37,2013-01-13 10:59:00,
2013-01-13 03:04:00,39.5,29.8,30.19,ESE,114,0.0,0.0,68,0.00,OVC,,0.00,0.0,WeatherDisplay:10.37,2013-01-13 11:04:00,
2013-01-13 03:09:00,39.3,30.0,30.19,ESE,114,0.0,0.0,69,0.00,OVC,,0.00,0.0,WeatherDisplay:10.37,2013-01-13 11:09:00,
2013-01-13 03:14:00,39.0,30.0,30.19,ESE,114,0.0,0.0,70,0.00,OVC,,0.00,0.0,WeatherDisplay:10.37,2013-01-13 11:14:00,
2013-01-13 03:19:00,38.8,29.8,30.19,ESE,114,0.2,1.1,70,0.00,OVC,,0.00,0.0,WeatherDisplay:10.37,2013-01-13 11:19:00,
2013-01-13 03:24:00,38.6,30.0,30.19,ESE,114,0.0,1.1,71,0.00,OVC,,0.00,0.0,WeatherDisplay:10.37,2013-01-13 11:24:00,
2013-01-13 03:29:00,38.5,29.9,30.19,ESE,114,0.0,0.0,71,0.00,OVC,,0.00,0.0,WeatherDisplay:10.37,2013-01-13 11:29:00,
2013-01-13 03:34:00,38.3,29.7,30.19,ESE,113,0.0,0.0,71,0.00,OVC,,0.00,0.0,WeatherDisplay:10.37,2013-01-13 11:34:00,
2013-01-13 03:39:00,38.1,29.5,30.20,ESE,114,0.0,0.0,71,0.00,OVC,,0.00,0.0,WeatherDisplay:10.37,2013-01-13 11:39:00,
2013-01-13 03:44:00,38.0,29.1,30.19,ESE,113,0.0,0.0,70,0.00,OVC,,0.00,0.0,WeatherDisplay:10.37,2013-01-13 11:44:00,
2013-01-13 03:49:00,38.0,29.1,30.20,ESE,114,0.0,1.1,70,0.00,OVC,,0.00,0.0,WeatherDisplay:10.37,2013-01-13 11:49:00,
2013-01-13 03:54:00,38.0,29.1,30.20,ESE,113,0.0,0.0,70,0.00,OVC,,0.00,0.0,WeatherDisplay:10.37,2013-01-13 11:54:00,
2013-01-13 03:59:00,37.9,29.0,30.19,ESE,114,0.5,2.3,70,0.00,OVC,,0.00,0.0,WeatherDisplay:10.37,2013-01-13 11:59:00,
2013-01-13 04:04:00,37.8,28.9,30.20,ESE,113,0.0,0.0,70,0.00,OVC,,0.00,0.0,WeatherDisplay:10.37,2013-01-13 12:04:00,
2013-01-13 04:09:00,37.7,28.8,30.20,ESE,114,0.1,1.1,70,0.00,OVC,,0.00,0.0,WeatherDisplay:10.37,2013-01-13 12:09:00,
2013-01-13 04:14:00,37.7,28.8,30.20,ESE,113,0.7,2.3,70,0.00,OVC,,0.00,0.0,WeatherDisplay:10.37,2013-01-13 12:14:00,
2013-01-13 04:19:00,37.7,27.7,30.19,ESE,115,0.4,3.0,67,0.00,OVC,,0.00,0.0,WeatherDisplay:10.37,2013-01-13 12:19:00,
2013-01-13 04:24:00,38.0,26.9,30.19,ESE,118,2.8,4.6,64,0.00,OVC,,0.00,0.0,WeatherDisplay:10.37,2013-01-13 12:24:00,
2013-01-13 04:29:00,38.4,25.3,30.19,ESE,120,1.6,3.0,59,0.00,OVC,,0.00,0.0,WeatherDisplay:10.37,2013-01-13 12:29:00,
2013-01-13 04:34:00,38.9,24.9,30.19,ESE,120,0.0,1.1,57,0.00,OVC,,0.00,0.0,WeatherDisplay:10.37,2013-01-13 12:34:00,
2013-01-13 04:39:00,39.1,25.6,30.19,ESE,120,0.7,2.3,58,0.00,OVC,,0.00,0.0,WeatherDisplay:10.37,2013-01-13 12:39:00,
2013-01-13 04:44:00,39.1,25.6,30.19,ESE,120,0.0,0.0,58,0.00,OVC,,0.00,0.0,WeatherDisplay:10.37,2013-01-13 12:44:00,
2013-01-13 04:49:00,39.1,26.0,30.19,ESE,120,0.0,0.0,59,0.00,OVC,,0.00,0.0,WeatherDisplay:10.37,2013-01-13 12:49:00,
2013-01-13 04:54:00,39.1,26.4,30.19,ESE,120,0.8,2.3,60,0.00,OVC,,0.00,0.0,WeatherDisplay:10.37,2013-01-13 12:54:00,
2013-01-13 04:59:00,39.0,25.9,30.19,ESE,120,1.7,2.3,59,0.00,OVC,,0.00,0.0,WeatherDisplay:10.37,2013-01-13 12:59:00,
2013-01-13 05:04:00,39.0,25.9,30.20,ESE,120,1.6,3.5,59,0.00,OVC,,0.00,0.0,WeatherDisplay:10.37,2013-01-13 13:04:00,
2013-01-13 05:09:00,39.2,25.6,30.20,ESE,120,2.2,3.5,58,0.00,OVC,,0.00,0.0,WeatherDisplay:10.37,2013-01-13 13:09:00,
2013-01-13 05:14:00,39.5,25.5,30.21,ESE,120,1.8,3.5,57,0.00,OVC,,0.00,0.0,WeatherDisplay:10.37,2013-01-13 13:14:00,
2013-01-13 05:19:00,39.7,25.3,30.20,ESE,122,2.9,4.6,56,0.00,OVC,,0.00,0.0,WeatherDisplay:10.37,2013-01-13 13:19:00,
2013-01-13 05:24:00,39.9,24.1,30.20,SE,129,3.5,3.5,53,0.00,OVC,,0.00,0.0,WeatherDisplay:10.37,2013-01-13 13:24:00,
2013-01-13 05:29:00,40.0,24.2,30.20,ESE,110,2.5,4.0,53,0.00,OVC,,0.00,0.0,WeatherDisplay:10.37,2013-01-13 13:29:00,
2013-01-13 05:34:00,40.0,24.2,30.20,ESE,117,1.8,3.5,53,0.00,OVC,,0.00,0.0,WeatherDisplay:10.37,2013-01-13 13:34:00,
2013-01-13 05:39:00,39.8,23.6,30.20,ESE,117,3.0,3.5,52,0.00,OVC,,0.00,0.0,WeatherDisplay:10.37,2013-01-13 13:39:00,
2013-01-13 05:44:00,39.8,23.6,30.20,ESE,117,3.1,3.5,52,0.00,OVC,,0.00,0.0,WeatherDisplay:10.37,2013-01-13 13:44:00,
2013-01-13 05:50:00,39.9,23.2,30.20,SE,128,4.1,6.0,51,0.00,OVC,,0.00,0.0,WeatherDisplay:10.37,2013-01-13 13:50:00,
2013-01-13 05:55:00,40.0,23.8,30.20,SE,128,2.2,3.5,52,0.00,OVC,,0.00,0.0,WeatherDisplay:10.37,2013-01-13 13:55:00,
2013-01-13 06:00:00,39.8,24.0,30.20,SE,128,2.1,3.5,53,0.00,OVC,,0.00,0.0,WeatherDisplay:10.37,2013-01-13 14:00:00,
2013-01-13 06:05:00,39.7,23.5,30.21,SE,128,2.7,3.5,52,0.00,OVC,,0.00,0.0,WeatherDisplay:10.37,2013-01-13 14:05:00,
2013-01-13 06:10:00,39.6,23.9,30.20,SE,128,2.7,3.5,53,0.00,OVC,,0.00,0.0,WeatherDisplay:10.37,2013-01-13 14:10:00,
2013-01-13 06:15:00,39.5,23.8,30.20,SE,128,2.2,3.5,53,0.00,OVC,,0.00,0.0,WeatherDisplay:10.37,2013-01-13 14:15:00,
2013-01-13 06:20:00,39.3,23.6,30.21,SE,128,2.8,3.5,53,0.00,OVC,,0.00,0.0,WeatherDisplay:10.37,2013-01-13 14:20:00,
2013-01-13 06:25:00,39.4,23.7,30.21,SE,128,1.6,3.5,53,0.00,OVC,,0.00,0.0,WeatherDisplay:10.37,2013-01-13 14:25:00,
2013-01-13 06:30:00,39.4,24.1,30.22,SE,128,1.9,2.3,54,0.00,OVC,,0.00,0.0,WeatherDisplay:10.37,2013-01-13 14:30:00,
2013-01-13 06:35:00,39.4,23.7,30.22,SE,128,1.8,3.5,53,0.00,OVC,,0.00,0.0,WeatherDisplay:10.37,2013-01-13 14:35:00,
2013-01-13 06:40:00,39.4,23.7,30.22,SE,128,1.6,3.5,53,0.00,OVC,,0.00,0.0,WeatherDisplay:10.37,2013-01-13 14:40:00,
2013-01-13 06:45:00,39.4,23.2,30.22,SE,128,2.6,3.5,52,0.00,OVC,,0.00,0.0,WeatherDisplay:10.37,2013-01-13 14:45:00,
2013-01-13 06:50:00,39.3,22.7,30.22,SE,128,1.0,4.0,51,0.00,OVC,,0.00,0.0,WeatherDisplay:10.37,2013-01-13 14:50:00,
2013-01-13 06:55:00,39.3,22.7,30.23,SE,128,1.3,2.3,51,0.00,OVC,,0.00,0.0,WeatherDisplay:10.37,2013-01-13 14:55:00,
2013-01-13 07:00:00,39.4,22.8,30.23,SE,128,1.0,2.3,51,0.00,OVC,,0.00,0.0,WeatherDisplay:10.37,2013-01-13 15:00:00,
2013-01-13 07:05:00,39.4,23.2,30.24,SE,128,1.8,2.3,52,0.00,OVC,,0.00,0.0,WeatherDisplay:10.37,2013-01-13 15:05:00,
2013-01-13 07:10:00,39.4,22.8,30.25,SE,128,2.0,3.5,51,0.00,OVC,,0.00,0.0,WeatherDisplay:10.37,2013-01-13 15:10:00,
2013-01-13 07:15:00,39.4,23.2,30.25,SE,128,0.5,2.3,52,0.00,OVC,,0.00,0.0,WeatherDisplay:10.37,2013-01-13 15:15:00,
2013-01-13 07:20:00,39.3,24.0,30.23,SE,128,0.0,2.0,54,0.00,OVC,,0.00,0.0,WeatherDisplay:10.37,2013-01-13 15:20:00,
2013-01-13 07:25:00,39.2,24.4,30.23,SE,128,0.0,0.0,55,0.00,OVC,,0.00,5.0,WeatherDisplay:10.37,2013-01-13 15:25:00,
2013-01-13 07:30:00,39.0,24.2,30.23,SE,128,0.0,1.0,55,0.00,OVC,,0.00,9.0,WeatherDisplay:10.37,2013-01-13 15:30:00,
2013-01-13 07:35:00,38.8,24.9,30.23,SE,128,0.0,0.0,57,0.00,OVC,,0.00,23.0,WeatherDisplay:10.37,2013-01-13 15:35:00,
2013-01-13 07:40:00,38.8,24.9,30.24,SE,128,0.0,1.0,57,0.00,OVC,,0.00,32.0,WeatherDisplay:10.37,2013-01-13 15:40:00,
2013-01-13 07:45:00,38.7,26.4,30.24,SE,128,0.0,1.1,61,0.00,OVC,,0.00,42.0,WeatherDisplay:10.37,2013-01-13 15:45:00,
2013-01-13 07:50:00,38.6,26.7,30.23,SE,128,1.0,2.0,62,0.00,OVC,,0.00,56.0,WeatherDisplay:10.37,2013-01-13 15:50:00,
2013-01-13 07:55:00,38.4,26.5,30.23,SE,128,0.1,2.3,62,0.00,OVC,,0.00,70.0,WeatherDisplay:10.37,2013-01-13 15:55:00,
2013-01-13 08:00:00,38.4,26.9,30.23,SE,128,0.0,0.0,63,0.00,OVC,,0.00,83.0,WeatherDisplay:10.37,2013-01-13 16:00:00,
2013-01-13 08:05:00,38.7,27.2,30.24,SE,128,0.0,0.0,63,0.00,OVC,,0.00,98.0,WeatherDisplay:10.37,2013-01-13 16:05:00,
2013-01-13 08:10:00,39.4,30.1,30.25,SE,128,0.0,0.0,69,0.00,OVC,,0.00,114.0,WeatherDisplay:10.37,2013-01-13 16:10:00,
2013-01-13 08:15:00,40.5,29.7,30.25,SE,128,0.0,0.0,65,0.00,OVC,,0.00,132.0,WeatherDisplay:10.37,2013-01-13 16:15:00,
2013-01-13 08:20:00,41.4,28.1,30.24,SE,128,0.0,0.0,59,0.00,CLR,,0.00,148.0,WeatherDisplay:10.37,2013-01-13 16:20:00,
2013-01-13 08:25:00,42.1,27.5,30.24,SE,128,0.4,3.5,56,0.00,CLR,,0.00,162.0,WeatherDisplay:10.37,2013-01-13 16:25:00,
2013-01-13 08:30:00,42.7,28.1,30.25,SE,128,0.0,0.0,56,0.00,CLR,,0.00,176.0,WeatherDisplay:10.37,2013-01-13 16:30:00,
2013-01-13 08:35:00,43.1,25.7,30.25,SE,128,1.8,3.5,50,0.00,CLR,,0.00,174.0,WeatherDisplay:10.37,2013-01-13 16:35:00,
2013-01-13 08:40:00,43.3,28.2,30.25,SE,128,0.0,0.0,55,0.00,CLR,,0.00,204.0,WeatherDisplay:10.37,2013-01-13 16:40:00,
2013-01-13 08:45:00,43.3,25.9,30.25,SE,128,0.0,4.0,50,0.00,CLR,,0.00,220.0,WeatherDisplay:10.37,2013-01-13 16:45:00,
2013-01-13 08:50:00,43.2,27.2,30.25,SE,128,2.2,3.5,53,0.00,CLR,,0.00,239.0,WeatherDisplay:10.37,2013-01-13 16:50:00,
2013-01-13 08:55:00,43.3,29.1,30.25,SE,128,0.7,2.3,57,0.00,CLR,,0.00,255.0,WeatherDisplay:10.37,2013-01-13 16:55:00,
2013-01-13 09:00:00,43.4,32.0,30.25,SE,128,0.5,1.1,64,0.00,CLR,,0.00,225.0,WeatherDisplay:10.37,2013-01-13 17:00:00,
2013-01-13 09:05:00,43.1,31.7,30.25,SE,128,0.0,4.0,64,0.00,CLR,,0.00,213.0,WeatherDisplay:10.37,2013-01-13 17:05:00,
2013-01-13 09:10:00,42.7,32.1,30.25,SE,128,2.1,4.0,66,0.00,CLR,,0.00,220.0,WeatherDisplay:10.37,2013-01-13 17:10:00,
2013-01-13 09:15:00,42.4,31.8,30.25,SE,128,1.0,2.3,66,0.00,CLR,,0.00,250.0,WeatherDisplay:10.37,2013-01-13 17:15:00,
2013-01-13 09:20:00,42.4,32.2,30.25,SE,128,1.0,3.5,67,0.00,CLR,,0.00,311.0,WeatherDisplay:10.37,2013-01-13 17:20:00,
2013-01-13 09:25:00,42.5,31.9,30.25,SE,128,0.7,2.3,66,0.00,CLR,,0.00,267.0,WeatherDisplay:10.37,2013-01-13 17:25:00,
2013-01-13 09:30:00,42.9,31.9,30.25,SE,129,0.0,0.0,65,0.00,CLR,,0.00,315.0,WeatherDisplay:10.37,2013-01-13 17:30:00,
2013-01-13 09:35:00,43.6,31.8,30.25,SE,129,0.0,0.0,63,0.00,CLR,,0.00,357.0,WeatherDisplay:10.37,2013-01-13 17:35:00,
2013-01-13 09:40:00,44.4,31.8,30.25,SE,128,0.4,1.1,61,0.00,CLR,,0.00,339.0,WeatherDisplay:10.37,2013-01-13 17:40:00,
2013-01-13 09:45:00,45.3,31.4,30.24,SE,128,1.5,3.0,58,0.00,CLR,,0.00,330.0,WeatherDisplay:10.37,2013-01-13 17:45:00,
2013-01-13 09:50:00,46.0,30.3,30.25,SE,143,2.6,4.6,54,0.00,CLR,,0.00,288.0,WeatherDisplay:10.37,2013-01-13 17:50:00,
2013-01-13 09:55:00,46.2,29.5,30.25,SSE,159,3.6,5.8,52,0.00,CLR,,0.00,322.0,WeatherDisplay:10.37,2013-01-13 17:55:00,
2013-01-13 10:00:00,46.1,30.4,30.25,SSE,155,3.6,5.8,54,0.00,CLR,,0.00,346.0,WeatherDisplay:10.37,2013-01-13 18:00:00,
2013-01-13 10:05:00,46.1,29.4,30.24,SSE,165,3.4,5.8,52,0.00,CLR,,0.00,332.0,WeatherDisplay:10.37,2013-01-13 18:05:00,
2013-01-13 10:10:00,46.1,29.9,30.24,SE,146,3.1,5.8,53,0.00,CLR,,0.00,325.0,WeatherDisplay:10.37,2013-01-13 18:10:00,
2013-01-13 10:15:00,46.0,29.8,30.24,SSE,148,1.1,3.5,53,0.00,CLR,,0.00,325.0,WeatherDisplay:10.37,2013-01-13 18:15:00,
2013-01-13 10:20:00,46.0,28.4,30.24,SSE,160,0.8,3.5,50,0.00,CLR,,0.00,353.0,WeatherDisplay:10.37,2013-01-13 18:20:00,
2013-01-13 10:25:00,46.1,28.5,30.24,SSE,162,0.4,1.1,50,0.00,CLR,,0.00,341.0,WeatherDisplay:10.37,2013-01-13 18:25:00,
2013-01-13 10:30:00,46.3,25.6,30.24,SSE,159,2.1,3.5,44,0.00,CLR,,0.00,343.0,WeatherDisplay:10.37,2013-01-13 18:30:00,
2013-01-13 10:35:00,46.3,25.0,30.24,SSE,158,0.8,3.0,43,0.00,CLR,,0.00,327.0,WeatherDisplay:10.37,2013-01-13 18:35:00,
2013-01-13 10:40:00,46.6,24.1,30.23,SSE,158,0.4,2.3,41,0.00,CLR,,0.00,378.0,WeatherDisplay:10.37,2013-01-13 18:40:00,
2013-01-13 10:45:00,46.7,23.0,30.24,South,171,1.5,3.0,39,0.00,CLR,,0.00,352.0,WeatherDisplay:10.37,2013-01-13 18:45:00,
2013-01-13 10:50:00,46.8,23.1,30.24,SSE,156,1.7,5.0,39,0.00,CLR,,0.00,462.0,WeatherDisplay:10.37,2013-01-13 18:50:00,
2013-01-13 10:55:00,46.9,23.2,30.24,SE,137,4.6,6.9,39,0.00,CLR,,0.00,408.0,WeatherDisplay:10.37,2013-01-13 18:55:00,
2013-01-13 11:00:00,46.4,22.1,30.23,SE,137,3.5,4.6,38,0.00,CLR,,0.00,404.0,WeatherDisplay:10.37,2013-01-13 19:00:00,
2013-01-13 11:05:00,46.3,23.3,30.23,SE,137,3.5,5.0,40,0.00,CLR,,0.00,406.0,WeatherDisplay:10.37,2013-01-13 19:05:00,
2013-01-13 11:10:00,46.5,22.8,30.23,SE,140,4.1,4.6,39,0.00,CLR,,0.00,381.0,WeatherDisplay:10.37,2013-01-13 19:10:00,
2013-01-13 11:15:00,46.8,23.1,30.23,SE,142,0.9,3.0,39,0.00,CLR,,0.00,494.0,WeatherDisplay:10.37,2013-01-13 19:15:00,
2013-01-13 11:20:00,47.0,22.7,30.23,SE,144,3.9,5.0,38,0.00,CLR,,0.00,441.0,WeatherDisplay:10.37,2013-01-13 19:20:00,
2013-01-13 11:25:00,47.2,22.9,30.23,SE,144,0.1,1.1,38,0.00,CLR,,0.00,439.0,WeatherDisplay:10.37,2013-01-13 19:25:00,
2013-01-13 11:30:00,47.4,22.4,30.22,SE,144,0.6,2.3,37,0.00,CLR,,0.00,482.0,WeatherDisplay:10.37,2013-01-13 19:30:00,
2013-01-13 11:35:00,47.8,23.4,30.22,SSE,162,3.0,4.6,38,0.00,CLR,,0.00,450.0,WeatherDisplay:10.37,2013-01-13 19:35:00,
2013-01-13 11:40:00,47.5,22.5,30.22,East,91,2.0,3.5,37,0.00,CLR,,0.00,482.0,WeatherDisplay:10.37,2013-01-13 19:40:00,
2013-01-13 11:45:00,47.0,22.7,30.22,South,189,0.9,2.3,38,0.00,CLR,,0.00,462.0,WeatherDisplay:10.37,2013-01-13 19:45:00,
2013-01-13 11:50:00,46.8,23.1,30.22,South,182,0.0,3.5,39,0.00,CLR,,0.00,485.0,WeatherDisplay:10.37,2013-01-13 19:50:00,
2013-01-13 11:55:00,46.6,21.7,30.22,ENE,73,5.1,6.9,37,0.00,CLR,,0.00,494.0,WeatherDisplay:10.37,2013-01-13 19:55:00,
2013-01-13 12:00:00,46.3,22.7,30.21,ENE,74,0.0,2.3,39,0.00,CLR,,0.00,483.0,WeatherDisplay:10.37,2013-01-13 20:00:00,
2013-01-13 12:05:00,46.2,22.6,30.21,NE,38,0.0,1.1,39,0.00,CLR,,0.00,468.0,WeatherDisplay:10.37,2013-01-13 20:05:00,
2013-01-13 12:10:00,46.1,22.5,30.21,NE,40,0.0,0.0,39,0.00,CLR,,0.00,446.0,WeatherDisplay:10.37,2013-01-13 20:10:00,
2013-01-13 12:15:00,46.1,23.7,30.21,NE,40,0.0,0.0,41,0.00,CLR,,0.00,482.0,WeatherDisplay:10.37,2013-01-13 20:15:00,
2013-01-13 12:20:00,46.4,23.4,30.20,North,5,0.8,2.3,40,0.00,CLR,,0.00,473.0,WeatherDisplay:10.37,2013-01-13 20:20:00,
2013-01-13 12:25:00,46.6,22.9,30.20,NNW,348,0.0,0.0,39,0.00,CLR,,0.00,494.0,WeatherDisplay:10.37,2013-01-13 20:25:00,
2013-01-13 12:31:00,46.6,22.9,30.20,NNW,338,0.0,0.0,39,0.00,CLR,,0.00,450.0,WeatherDisplay:10.37,2013-01-13 20:31:00,
2013-01-13 12:36:00,46.8,23.1,30.20,North,10,1.9,3.5,39,0.00,CLR,,0.00,508.0,WeatherDisplay:10.37,2013-01-13 20:36:00,
2013-01-13 12:41:00,46.8,22.5,30.20,ENE,67,1.0,2.3,38,0.00,CLR,,0.00,487.0,WeatherDisplay:10.37,2013-01-13 20:41:00,
2013-01-13 12:46:00,46.8,23.1,30.19,ESE,111,0.0,0.0,39,0.00,CLR,,0.00,485.0,WeatherDisplay:10.37,2013-01-13 20:46:00,
2013-01-13 12:51:00,47.0,22.0,30.19,ESE,111,0.0,3.5,37,0.00,CLR,,0.00,499.0,WeatherDisplay:10.37,2013-01-13 20:51:00,
2013-01-13 12:56:00,47.6,22.6,30.19,SE,127,0.1,3.5,37,0.00,CLR,,0.00,475.0,WeatherDisplay:10.37,2013-01-13 20:56:00,
2013-01-13 13:01:00,48.0,22.9,30.18,SE,127,0.1,2.3,37,0.00,CLR,,0.00,459.0,WeatherDisplay:10.37,2013-01-13 21:01:00,
2013-01-13 13:06:00,48.5,24.0,30.18,SE,127,0.0,0.0,38,0.00,CLR,,0.00,473.0,WeatherDisplay:10.37,2013-01-13 21:06:00,
2013-01-13 13:11:00,48.9,25.0,30.18,SE,127,0.0,0.0,39,0.00,CLR,,0.00,462.0,WeatherDisplay:10.37,2013-01-13 21:11:00,
2013-01-13 13:16:00,49.4,26.1,30.18,SE,127,0.0,0.0,40,0.00,CLR,,0.00,462.0,WeatherDisplay:10.37,2013-01-13 21:16:00,
2013-01-13 13:21:00,49.6,24.4,30.18,SE,127,0.5,3.5,37,0.00,CLR,,0.00,476.0,WeatherDisplay:10.37,2013-01-13 21:21:00,
2013-01-13 13:26:00,49.1,24.6,30.18,SE,127,0.0,0.0,38,0.00,CLR,,0.00,455.0,WeatherDisplay:10.37,2013-01-13 21:26:00,
2013-01-13 13:31:00,48.9,24.4,30.17,SE,127,0.7,1.1,38,0.00,CLR,,0.00,436.0,WeatherDisplay:10.37,2013-01-13 21:31:00,
2013-01-13 13:36:00,48.9,23.7,30.17,ESE,105,0.6,3.5,37,0.00,CLR,,0.00,452.0,WeatherDisplay:10.37,2013-01-13 21:36:00,
2013-01-13 13:41:00,48.9,24.4,30.17,NE,54,1.5,4.6,38,0.00,CLR,,0.00,439.0,WeatherDisplay:10.37,2013-01-13 21:41:00,
2013-01-13 13:46:00,48.8,24.9,30.17,North,10,0.7,0.0,39,0.00,CLR,,0.00,438.0,WeatherDisplay:10.37,2013-01-13 21:46:00,
2013-01-13 13:51:00,48.8,24.3,30.17,NNW,341,0.2,2.3,38,0.00,CLR,,0.00,427.0,WeatherDisplay:10.37,2013-01-13 21:51:00,
2013-01-13 13:56:00,49.0,25.7,30.17,NE,35,0.0,3.5,40,0.00,CLR,,0.00,418.0,WeatherDisplay:10.37,2013-01-13 21:56:00,
2013-01-13 14:01:00,49.2,25.9,30.17,East,88,0.0,3.5,40,0.00,CLR,,0.00,411.0,WeatherDisplay:10.37,2013-01-13 22:01:00,
2013-01-13 14:06:00,49.5,24.9,30.17,East,88,0.0,0.0,38,0.00,CLR,,0.00,408.0,WeatherDisplay:10.37,2013-01-13 22:06:00,
2013-01-13 14:11:00,49.6,26.2,30.17,East,88,0.0,0.0,40,0.00,CLR,,0.00,397.0,WeatherDisplay:10.37,2013-01-13 22:11:00,
2013-01-13 14:16:00,49.8,25.8,30.17,East,88,0.8,3.5,39,0.00,CLR,,0.00,385.0,WeatherDisplay:10.37,2013-01-13 22:16:00,
2013-01-13 14:21:00,49.5,26.1,30.17,East,88,1.4,3.5,40,0.00,CLR,,0.00,378.0,WeatherDisplay:10.37,2013-01-13 22:21:00,
2013-01-13 14:26:00,49.6,26.8,30.17,East,88,0.0,0.0,41,0.00,CLR,,0.00,360.0,WeatherDisplay:10.37,2013-01-13 22:26:00,
2013-01-13 14:31:00,49.9,27.7,30.17,ENE,74,0.5,3.5,42,0.00,CLR,,0.00,353.0,WeatherDisplay:10.37,2013-01-13 22:31:00,
2013-01-13 14:36:00,49.9,27.7,30.17,ESE,115,0.6,2.3,42,0.00,CLR,,0.00,339.0,WeatherDisplay:10.37,2013-01-13 22:36:00,
2013-01-13 14:41:00,49.7,28.6,30.17,ESE,115,0.0,0.0,44,0.00,CLR,,0.00,327.0,WeatherDisplay:10.37,2013-01-13 22:41:00,
2013-01-13 14:46:00,49.7,27.5,30.17,ESE,115,0.0,0.0,42,0.00,FEW,,0.00,316.0,WeatherDisplay:10.37,2013-01-13 22:46:00,
2013-01-13 14:51:00,49.6,28.0,30.17,ESE,115,0.0,0.0,43,0.00,FEW,,0.00,306.0,WeatherDisplay:10.37,2013-01-13 22:51:00,
2013-01-13 14:56:00,49.6,27.4,30.17,NW,309,0.3,2.3,42,0.00,FEW,,0.00,294.0,WeatherDisplay:10.37,2013-01-13 22:56:00,
2013-01-13 15:01:00,49.9,28.3,30.17,North,351,0.0,0.0,43,0.00,FEW,,0.00,283.0,WeatherDisplay:10.37,2013-01-13 23:01:00,
2013-01-13 15:06:00,50.1,28.4,30.17,NNE,22,0.2,3.5,43,0.00,FEW,,0.00,272.0,WeatherDisplay:10.37,2013-01-13 23:06:00,
2013-01-13 15:11:00,50.3,28.6,30.17,NNE,23,0.7,2.3,43,0.00,FEW,,0.00,262.0,WeatherDisplay:10.37,2013-01-13 23:11:00,
2013-01-13 15:16:00,50.5,28.2,30.16,North,5,0.0,0.0,42,0.00,FEW,,0.00,250.0,WeatherDisplay:10.37,2013-01-13 23:16:00,
2013-01-13 15:21:00,50.5,27.7,30.17,ENE,59,0.0,0.0,41,0.00,SCT,,0.00,239.0,WeatherDisplay:10.37,2013-01-13 23:21:00,
2013-01-13 15:26:00,50.5,27.7,30.17,NNW,335,0.0,3.5,41,0.00,SCT,,0.00,227.0,WeatherDisplay:10.37,2013-01-13 23:26:00,
2013-01-13 15:31:00,50.5,27.7,30.16,NNW,332,0.0,0.0,41,0.00,SCT,,0.00,214.0,WeatherDisplay:10.37,2013-01-13 23:31:00,
2013-01-13 15:36:00,50.7,27.8,30.17,NW,323,0.0,0.0,41,0.00,SCT,,0.00,204.0,WeatherDisplay:10.37,2013-01-13 23:36:00,
2013-01-13 15:41:00,51.0,28.1,30.17,NW,323,0.0,0.0,41,0.00,SCT,,0.00,193.0,WeatherDisplay:10.37,2013-01-13 23:41:00,
2013-01-13 15:46:00,51.2,27.1,30.16,North,10,0.0,0.0,39,0.00,SCT,,0.00,183.0,WeatherDisplay:10.37,2013-01-13 23:46:00,
2013-01-13 15:51:00,51.0,27.5,30.16,NE,50,0.0,0.0,40,0.00,SCT,,0.00,171.0,WeatherDisplay:10.37,2013-01-13 23:51:00,
2013-01-13 15:56:00,51.0,25.6,30.17,NNW,329,0.0,3.5,37,0.00,SCT,,0.00,160.0,WeatherDisplay:10.37,2013-01-13 23:56:00,
2013-01-13 16:01:00,50.9,25.5,30.16,NNE,29,0.0,0.0,37,0.00,SCT,,0.00,148.0,WeatherDisplay:10.37,2013-01-14 00:01:00,
2013-01-13 16:06:00,50.6,24.6,30.16,North,354,0.0,0.0,36,0.00,SCT,,0.00,132.0,WeatherDisplay:10.37,2013-01-14 00:06:00,
2013-01-13 16:11:00,50.6,25.9,30.17,NNW,331,0.5,3.5,38,0.00,SCT,,0.00,116.0,WeatherDisplay:10.37,2013-01-14 00:11:00,
2013-01-13 16:16:00,50.5,25.8,30.16,North,353,2.7,3.5,38,0.00,BKN,,0.00,100.0,WeatherDisplay:10.37,2013-01-14 00:16:00,
2013-01-13 16:21:00,50.6,25.9,30.16,North,354,0.6,3.0,38,0.00,BKN,,0.00,84.0,WeatherDisplay:10.37,2013-01-14 00:21:00,
2013-01-13 16:26:00,50.3,26.3,30.16,NNW,341,1.2,3.5,39,0.00,BKN,,0.00,74.0,WeatherDisplay:10.37,2013-01-14 00:26:00,
2013-01-13 16:31:00,50.0,26.6,30.16,NNE,23,0.0,2.3,40,0.00,BKN,,0.00,60.0,WeatherDisplay:10.37,2013-01-14 00:31:00,
2013-01-13 16:36:00,49.9,26.5,30.16,NNE,23,0.4,1.0,40,0.00,BKN,,0.00,47.0,WeatherDisplay:10.37,2013-01-14 00:36:00,
2013-01-13 16:41:00,49.9,27.1,30.16,NNE,19,0.7,3.0,41,0.00,BKN,,0.00,37.0,WeatherDisplay:10.37,2013-01-14 00:41:00,
2013-01-13 16:46:00,50.0,26.6,30.16,North,353,0.0,0.0,40,0.00,BKN,,0.00,26.0,WeatherDisplay:10.37,2013-01-14 00:46:00,
2013-01-13 16:51:00,49.8,27.6,30.16,North,350,1.4,3.5,42,0.00,OVC,,0.00,14.0,WeatherDisplay:10.37,2013-01-14 00:51:00,
2013-01-13 16:56:00,49.5,28.5,30.16,WNW,289,1.0,3.5,44,0.00,OVC,,0.00,12.0,WeatherDisplay:10.37,2013-01-14 00:56:00,
2013-01-13 17:01:00,49.2,29.8,30.16,NW,326,0.0,0.0,47,0.00,OVC,,0.00,11.0,WeatherDisplay:10.37,2013-01-14 01:01:00,
2013-01-13 17:06:00,48.8,31.0,30.16,NW,317,1.5,3.5,50,0.00,OVC,,0.00,7.0,WeatherDisplay:10.37,2013-01-14 01:06:00,
2013-01-13 17:11:00,48.5,32.1,30.16,WNW,296,3.4,5.8,53,0.00,OVC,,0.00,5.0,WeatherDisplay:10.37,2013-01-14 01:11:00,
2013-01-13 17:16:00,48.1,32.7,30.16,WNW,296,2.6,4.0,55,0.00,OVC,,0.00,0.0,WeatherDisplay:10.37,2013-01-14 01:16:00,
2013-01-13 17:21:00,47.8,32.9,30.16,WNW,290,1.7,3.5,56,0.00,OVC,,0.00,0.0,WeatherDisplay:10.37,2013-01-14 01:21:00,
2013-01-13 17:26:00,47.6,33.5,30.16,WNW,291,1.7,4.6,58,0.00,OVC,,0.00,0.0,WeatherDisplay:10.37,2013-01-14 01:26:00,
2013-01-13 17:31:00,47.4,33.8,30.16,WNW,297,2.3,3.5,59,0.00,OVC,,0.00,0.0,WeatherDisplay:10.37,2013-01-14 01:31:00,
2013-01-13 17:37:00,47.1,33.9,30.16,WNW,287,2.7,3.5,60,0.00,OVC,,0.00,0.0,WeatherDisplay:10.37,2013-01-14 01:37:00,
2013-01-13 17:42:00,47.0,34.2,30.17,WNW,296,2.1,4.0,61,0.00,OVC,,0.00,0.0,WeatherDisplay:10.37,2013-01-14 01:42:00,
2013-01-13 17:47:00,46.9,34.6,30.17,WNW,302,0.8,3.5,62,0.00,OVC,,0.00,0.0,WeatherDisplay:10.37,2013-01-14 01:47:00,
2013-01-13 17:52:00,46.8,34.9,30.17,WNW,302,0.4,1.1,63,0.00,OVC,,0.00,0.0,WeatherDisplay:10.37,2013-01-14 01:52:00,
2013-01-13 17:57:00,46.8,35.3,30.17,WNW,285,2.4,3.5,64,0.00,OVC,,0.00,0.0,WeatherDisplay:10.37,2013-01-14 01:57:00,
2013-01-13 18:02:00,46.7,35.2,30.17,WNW,287,2.9,5.0,64,0.00,OVC,,0.00,0.0,WeatherDisplay:10.37,2013-01-14 02:02:00,
2013-01-13 18:07:00,46.7,35.6,30.17,WNW,288,0.4,0.0,65,0.00,OVC,,0.00,0.0,WeatherDisplay:10.37,2013-01-14 02:07:00,
2013-01-13 18:12:00,46.6,35.5,30.17,NNW,347,0.0,3.5,65,0.00,OVC,,0.00,0.0,WeatherDisplay:10.37,2013-01-14 02:12:00,
2013-01-13 18:17:00,46.5,35.7,30.17,NNW,348,0.0,0.0,66,0.00,OVC,,0.00,0.0,WeatherDisplay:10.37,2013-01-14 02:17:00,
2013-01-13 18:22:00,46.4,35.7,30.17,NNW,348,0.0,0.0,66,0.00,OVC,,0.00,0.0,WeatherDisplay:10.37,2013-01-14 02:22:00,
2013-01-13 18:27:00,46.4,36.0,30.17,NNW,348,0.0,0.0,67,0.00,OVC,,0.00,0.0,WeatherDisplay:10.37,2013-01-14 02:27:00,
2013-01-13 18:32:00,46.3,35.9,30.17,NNW,348,0.0,0.0,67,0.00,OVC,,0.00,0.0,WeatherDisplay:10.37,2013-01-14 02:32:00,
2013-01-13 18:37:00,46.3,36.3,30.17,NNW,348,0.0,0.0,68,0.00,OVC,,0.00,0.0,WeatherDisplay:10.37,2013-01-14 02:37:00,
2013-01-13 18:42:00,46.3,36.3,30.17,NNW,348,0.0,0.0,68,0.00,OVC,,0.00,0.0,WeatherDisplay:10.37,2013-01-14 02:42:00,
2013-01-13 18:47:00,46.3,36.3,30.17,NNW,348,0.0,0.0,68,0.00,OVC,,0.00,0.0,WeatherDisplay:10.37,2013-01-14 02:47:00,
2013-01-13 18:52:00,46.2,36.6,30.17,NNW,348,0.0,0.0,69,0.00,OVC,,0.00,0.0,WeatherDisplay:10.37,2013-01-14 02:52:00,
2013-01-13 18:57:00,46.2,36.6,30.17,NNW,348,0.0,0.0,69,0.00,OVC,,0.00,0.0,WeatherDisplay:10.37,2013-01-14 02:57:00,
2013-01-13 19:02:00,46.1,36.5,30.17,NNW,348,0.0,0.0,69,0.00,OVC,,0.00,0.0,WeatherDisplay:10.37,2013-01-14 03:02:00,
2013-01-13 19:07:00,46.0,36.4,30.17,NNW,348,0.0,0.0,69,0.00,OVC,,0.00,0.0,WeatherDisplay:10.37,2013-01-14 03:07:00,
2013-01-13 19:12:00,45.9,36.3,30.18,NNW,348,0.0,0.0,69,0.00,OVC,,0.00,0.0,WeatherDisplay:10.37,2013-01-14 03:12:00,
2013-01-13 19:17:00,45.8,36.2,30.18,NNW,348,0.0,0.0,69,0.00,OVC,,0.00,0.0,WeatherDisplay:10.37,2013-01-14 03:17:00,
2013-01-13 19:22:00,45.8,35.5,30.18,NNW,348,0.0,0.0,67,0.00,OVC,,0.00,0.0,WeatherDisplay:10.37,2013-01-14 03:22:00,
2013-01-13 19:27:00,45.7,35.4,30.17,NNW,348,1.4,3.5,67,0.00,OVC,,0.00,0.0,WeatherDisplay:10.37,2013-01-14 03:27:00,
2013-01-13 19:32:00,45.6,34.9,30.18,NNW,348,0.3,2.3,66,0.00,OVC,,0.00,0.0,WeatherDisplay:10.37,2013-01-14 03:32:00,
2013-01-13 19:37:00,45.5,34.8,30.18,NNW,348,1.2,3.5,66,0.00,OVC,,0.00,0.0,WeatherDisplay:10.37,2013-01-14 03:37:00,
2013-01-13 19:42:00,45.5,35.2,30.18,NNW,348,0.0,1.0,67,0.00,OVC,,0.00,0.0,WeatherDisplay:10.37,2013-01-14 03:42:00,
2013-01-13 19:47:00,45.5,34.8,30.18,NNW,348,0.2,2.0,66,0.00,OVC,,0.00,0.0,WeatherDisplay:10.37,2013-01-14 03:47:00,
2013-01-13 19:52:00,45.5,34.8,30.18,NNW,348,0.0,0.0,66,0.00,OVC,,0.00,0.0,WeatherDisplay:10.37,2013-01-14 03:52:00,
2013-01-13 19:57:00,45.5,34.8,30.18,NNW,348,0.0,0.0,66,0.00,OVC,,0.00,0.0,WeatherDisplay:10.37,2013-01-14 03:57:00,
2013-01-13 20:02:00,45.5,34.8,30.18,NNW,348,0.0,0.0,66,0.00,OVC,,0.00,0.0,WeatherDisplay:10.37,2013-01-14 04:02:00,
2013-01-13 20:07:00,45.5,34.8,30.18,North,10,0.0,0.0,66,0.00,OVC,,0.00,0.0,WeatherDisplay:10.37,2013-01-14 04:07:00,
2013-01-13 20:12:00,45.4,34.7,30.18,North,360,0.0,0.0,66,0.00,OVC,,0.00,0.0,WeatherDisplay:10.37,2013-01-14 04:12:00,
2013-01-13 20:17:00,45.2,34.9,30.18,North,359,0.0,0.0,67,0.00,OVC,,0.00,0.0,WeatherDisplay:10.37,2013-01-14 04:17:00,
2013-01-13 20:22:00,45.2,34.9,30.18,North,359,0.0,0.0,67,0.00,OVC,,0.00,0.0,WeatherDisplay:10.37,2013-01-14 04:22:00,
2013-01-13 20:27:00,45.2,34.9,30.18,North,360,0.0,0.0,67,0.00,OVC,,0.00,0.0,WeatherDisplay:10.37,2013-01-14 04:27:00,
2013-01-13 20:32:00,45.1,35.2,30.18,North,360,0.0,2.0,68,0.00,OVC,,0.00,0.0,WeatherDisplay:10.37,2013-01-14 04:32:00,
2013-01-13 20:37:00,45.1,34.8,30.18,North,357,0.0,0.0,67,0.00,OVC,,0.00,0.0,WeatherDisplay:10.37,2013-01-14 04:37:00,
2013-01-13 20:42:00,45.2,34.9,30.18,NNW,330,0.0,0.0,67,0.00,OVC,,0.00,0.0,WeatherDisplay:10.37,2013-01-14 04:42:00,
2013-01-13 20:47:00,45.2,34.1,30.19,NNE,27,0.0,2.3,65,0.00,OVC,,0.00,0.0,WeatherDisplay:10.37,2013-01-14 04:47:00,
2013-01-13 20:52:00,45.3,33.8,30.19,NNW,339,1.8,3.5,64,0.00,OVC,,0.00,0.0,WeatherDisplay:10.37,2013-01-14 04:52:00,
2013-01-13 20:57:00,45.5,33.2,30.19,NNW,333,1.0,3.5,62,0.00,OVC,,0.00,0.0,WeatherDisplay:10.37,2013-01-14 04:57:00,
2013-01-13 21:00:00,45.6,32.9,30.19,NNW,343,2.0,4.0,61,0.00,OVC,,0.00,0.0,WeatherDisplay:10.37,2013-01-14 05:00:00,
2013-01-13 21:01:00,45.6,32.9,30.19,NNW,333,0.0,3.5,61,0.00,OVC,,0.00,0.0,WeatherDisplay:10.37,2013-01-14 05:01:00,
2013-01-13 21:06:00,45.8,32.3,30.18,North,356,1.0,3.5,59,0.00,OVC,,0.00,0.0,WeatherDisplay:10.37,2013-01-14 05:06:00,
2013-01-13 21:11:00,45.9,31.5,30.18,North,5,3.4,4.0,57,0.00,OVC,,0.00,0.0,WeatherDisplay:10.37,2013-01-14 05:11:00,
2013-01-13 21:16:00,46.1,30.4,30.18,North,358,3.1,6.9,54,0.00,OVC,,0.00,0.0,WeatherDisplay:10.37,2013-01-14 05:16:00,
2013-01-13 21:21:00,46.2,27.6,30.18,NNE,29,2.4,3.5,48,0.00,OVC,,0.00,0.0,WeatherDisplay:10.37,2013-01-14 05:21:00,
2013-01-13 21:26:00,46.3,25.6,30.18,NNW,331,3.0,7.0,44,0.00,OVC,,0.00,0.0,WeatherDisplay:10.37,2013-01-14 05:26:00,
2013-01-13 21:31:00,46.3,24.4,30.18,North,10,1.9,3.5,42,0.00,OVC,,0.00,0.0,WeatherDisplay:10.37,2013-01-14 05:31:00,
2013-01-13 21:36:00,46.2,24.9,30.18,NNW,331,2.4,9.2,43,0.00,OVC,,0.00,0.0,WeatherDisplay:10.37,2013-01-14 05:36:00,
2013-01-13 21:41:00,46.2,24.9,30.18,NNE,32,2.3,6.9,43,0.00,OVC,,0.00,0.0,WeatherDisplay:10.37,2013-01-14 05:41:00,
2013-01-13 21:46:00,46.2,24.9,30.18,North,355,4.4,9.2,43,0.00,OVC,,0.00,0.0,WeatherDisplay:10.37,2013-01-14 05:46:00,
2013-01-13 21:51:00,46.1,25.9,30.18,NW,321,1.6,3.5,45,0.00,OVC,,0.00,0.0,WeatherDisplay:10.37,2013-01-14 05:51:00,
2013-01-13 21:56:00,46.1,24.8,30.19,NE,34,1.2,3.5,43,0.00,OVC,,0.00,0.0,WeatherDisplay:10.37,2013-01-14 05:56:00,
2013-01-13 22:02:00,46.1,24.8,30.19,North,10,2.1,4.6,43,0.00,OVC,,0.00,0.0,WeatherDisplay:10.37,2013-01-14 06:02:00,
2013-01-13 22:07:00,46.1,24.3,30.18,NNW,343,1.5,4.0,42,0.00,OVC,,0.00,0.0,WeatherDisplay:10.37,2013-01-14 06:07:00,
2013-01-13 22:12:00,46.1,23.7,30.18,North,356,2.4,3.5,41,0.00,OVC,,0.00,0.0,WeatherDisplay:10.37,2013-01-14 06:12:00,
2013-01-13 22:17:00,46.1,23.1,30.18,NNE,19,3.2,9.2,40,0.00,OVC,,0.00,0.0,WeatherDisplay:10.37,2013-01-14 06:17:00,
2013-01-13 22:22:00,46.1,23.7,30.19,NE,34,3.4,7.0,41,0.00,OVC,,0.00,0.0,WeatherDisplay:10.37,2013-01-14 06:22:00,
2013-01-13 22:27:00,46.0,23.0,30.19,NNE,19,1.1,3.5,40,0.00,OVC,,0.00,0.0,WeatherDisplay:10.37,2013-01-14 06:27:00,
2013-01-13 22:32:00,45.9,22.3,30.18,North,5,2.0,5.0,39,0.00,OVC,,0.00,0.0,WeatherDisplay:10.37,2013-01-14 06:32:00,
2013-01-13 22:37:00,45.8,20.3,30.18,NNE,29,3.7,6.0,36,0.00,OVC,,0.00,0.0,WeatherDisplay:10.37,2013-01-14 06:37:00,
2013-01-13 22:42:00,45.8,19.7,30.18,NE,36,1.5,3.5,35,0.00,OVC,,0.00,0.0,WeatherDisplay:10.37,2013-01-14 06:42:00,
2013-01-13 22:47:00,45.8,18.3,30.18,NE,40,2.0,9.2,33,0.00,OVC,,0.00,0.0,WeatherDisplay:10.37,2013-01-14 06:47:00,
2013-01-13 22:52:00,45.9,16.9,30.19,North,10,4.5,14.0,31,0.00,OVC,,0.00,0.0,WeatherDisplay:10.37,2013-01-14 06:52:00,
2013-01-13 22:57:00,46.0,16.3,30.19,NE,56,1.7,4.6,30,0.00,OVC,,0.00,0.0,WeatherDisplay:10.37,2013-01-14 06:57:00,
2013-01-13 23:02:00,46.0,16.3,30.19,NE,50,3.0,6.0,30,0.00,OVC,,0.00,0.0,WeatherDisplay:10.37,2013-01-14 07:02:00,
2013-01-13 23:07:00,46.0,15.5,30.19,NE,39,3.4,6.9,29,0.00,OVC,,0.00,0.0,WeatherDisplay:10.37,2013-01-14 07:07:00,
2013-01-13 23:12:00,46.0,16.3,30.19,NE,45,5.2,10.4,30,0.00,OVC,,0.00,0.0,WeatherDisplay:10.37,2013-01-14 07:12:00,
2013-01-13 23:17:00,45.9,16.2,30.20,ENE,58,4.9,10.4,30,0.00,OVC,,0.00,0.0,WeatherDisplay:10.37,2013-01-14 07:17:00,
2013-01-13 23:22:00,45.8,16.8,30.20,NNW,337,4.1,12.0,31,0.00,OVC,,0.00,0.0,WeatherDisplay:10.37,2013-01-14 07:22:00,
2013-01-13 23:27:00,45.7,16.7,30.20,North,10,7.0,13.8,31,0.00,OVC,,0.00,0.0,WeatherDisplay:10.37,2013-01-14 07:27:00,
2013-01-13 23:32:00,45.6,17.4,30.20,NNE,20,3.8,6.9,32,0.00,OVC,,0.00,0.0,WeatherDisplay:10.37,2013-01-14 07:32:00,
2013-01-13 23:37:00,45.6,17.4,30.20,NE,47,7.7,15.0,32,0.00,OVC,,0.00,0.0,WeatherDisplay:10.37,2013-01-14 07:37:00,
2013-01-13 23:42:00,45.6,17.4,30.20,NE,38,4.7,10.4,32,0.00,OVC,,0.00,0.0,WeatherDisplay:10.37,2013-01-14 07:42:00,
2013-01-13 23:47:00,45.5,17.3,30.21,NNE,32,4.7,11.5,32,0.00,OVC,,0.00,0.0,WeatherDisplay:10.37,2013-01-14 07:47:00,
2013-01-13 23:52:00,45.3,17.1,30.20,NE,43,6.0,12.7,32,0.00,OVC,,0.00,0.0,WeatherDisplay:10.37,2013-01-14 07:52:00,
2013-01-13 23:57:00,45.2,17.8,30.20,NE,48,4.1,6.9,33,0.00,OVC,,0.00,0.0,WeatherDisplay:10.37,2013-01-14 07:57:00,